Погода в Люнебурге

Германия     53°14′34″N   10°24′52″E
темп.,
°C
ветер,
м/с
пор.,
м/с
влажн.,
%
обл.,
%
осадки,
мм/ч
давл.,
гПа
погр.,
м
8 мая, сб
сб823:00+4з411855 0.0 1016544
02:00+3зюз311910 0.0 1017385
05:00+1юз389814 0.0 1017189
08:00+5зюз367795 0.0 1018355
11:00+11зюз3448100 0.0 10171416
14:00+13юз3537100 0.0 10162187
17:00+14ю463697 0.0 10142152
20:00+11ююв4852100 0.0 10131196
9 мая, вс
вс923:00+8ююв41492100 0.9 1011693
02:00+9ю51588100 1.7 1009507
05:00+8ю41391100 0.0 1009293
08:00+13ю3979100 0.0 1008257
11:00+20ю475299 0.0 1008824
14:00+24ю5740100 0.0 10071345
17:00+25ю594674 0.0 10051481
20:00+21ююв4116299 0.0 1005564
10 мая, пн
пн1023:00+17ююв41480100 0.0 1005353
02:00+16ююв41273100 0.0 1005266
05:00+13ююв287756 0.0 1005160
08:00+16ююв366948 0.0 1005240
11:00+22ююв234968 0.0 1005831
14:00+26ю31037100 0.0 10032247
17:00+20зюз5872100 0.4 1006927
20:00+16зсз3674100 0.4 1009620
11 мая, вт
вт1123:00+13сз1397100 0.6 1010100
02:00+12вюв1298100 5.1 1011194
05:00+10с4798100 6.7 1011381
08:00+10ссв3898100 17.2 1012428
11:00+12св2488100 0.8 1012540
14:00+13ссв3484100 1.0 1012672
17:00+14св4574100 0.1 1011759
20:00+12ссв3681100 0.1 1011511
12 мая, ср
ср1223:00+9с2792100 0.0 1011234
02:00+10ссв279198 0.0 1010329
05:00+9сз2497100 0.9 1009210
08:00+9ссз2598100 4.1 1009261
11:00+10сз2499100 1.4 1008286
14:00+11сз3596100 1.5 1009461
17:00+11сз2596100 0.1 1009376
20:00+11сз3898100 0.1 1010396